Location: Belvedere Heights
(33.9836°N, 117.3109°W)
Time: 23:15:45
(UTC+00:00)

Meteor 1-14 Rocket - Visible Passes

Search period start: 04 December 2023 00:00
Search period end: 14 December 2023 00:00
Orbit: 833 x 919 km, 81.3° (Epoch: 04 December)

Date Brightness Start Highest point End Pass type
(mag) Time Alt. Az. Time Alt. Az. Time Alt. Az.
06 Dec 6.3 02:09:15 10° NNE 02:09:19 10° NNE 02:09:19 10° NNE visible
06 Dec7.004:03:59SSW04:03:59SSW03:51:57NNWvisible
07 Dec 5.5 02:04:40 10° NNE 02:13:55 11° SE 02:14:14 10° SE visible
07 Dec 6.4 03:48:07 10° NNW 03:56:08 16° SW 03:57:25 10° SSW visible
08 Dec 4.8 02:00:06 10° NNE 02:04:59 31° ENE 02:09:53 10° SE visible
08 Dec 6.1 03:43:43 10° NW 03:48:14 26° W 03:52:47 10° SW visible
09 Dec 4.7 01:55:31 10° NNE 02:00:30 33° ENE 02:05:31 10° SE visible
09 Dec 6.2 03:39:20 10° NW 03:43:43 24° W 03:48:08 10° SW visible
10 Dec 4.7 01:50:58 10° N 01:56:02 36° ENE 02:01:09 10° SE visible
10 Dec 6.3 03:34:58 10° NW 03:39:12 23° W 03:43:28 10° SW visible
11 Dec 4.6 01:46:24 10° N 01:51:34 39° ENE 01:56:46 10° SE visible
11 Dec 6.5 03:30:37 10° NW 03:34:40 21° W 03:38:47 10° SW visible
12 Dec 4.5 01:41:51 10° N 01:47:05 41° ENE 01:52:22 10° SSE visible
12 Dec 6.6 03:26:16 10° NW 03:30:10 20° W 03:34:05 10° SW visible
13 Dec 4.5 01:37:18 10° N 01:42:37 45° ENE 01:47:58 10° SSE visible
13 Dec 6.7 03:21:56 10° NW 03:25:38 18° W 03:29:22 10° SW visible
